Погода в Инге

Погода в Инге : погода сейчас, прогноз погоды и архив. Всё, что Вы хотите узнать о погоде в Инге!

Поиск расширенной информации на нашем сайте:

Другие новости

Новости СМИ2

Главная страница сайта

Новости сайта

03.07.2017

Напоминаем, что на нашем специализированном сайте Метеоцентр.Азия вы можете получить высокодетализированные автоматические прогнозы погоды по пунктам России, СНГ и мира в авиационном формате (включающие направление и скорость ветра, видимость, явления погоды, количество и форму облачности, нижнюю и верхнюю границу облачности).


Погода в Инге - сегодня

Время (UTC), дата Ветер
(°,м/с) 
Видим.   Явления Облачность Т
(°С)
Тd
(°С)
f(%) Тe
(°С)
Pmin
(гПа)
dP
(гПа)
Po
(мм)
O2
(г/м3)
Тmin Tmax R s Состояние
почвы
18 21.02.18 тихо ()   н/о  слаб. снег  10/0 средняя, верхняя 
[Ac As|Cs]
-10.4 -12.4 85 -10  1022.3  -0.8  715  300           
21 21.02.18 тихо ()   н/о  слаб. снег  10/0 средняя 
[As op]
-11.6 -13.6 85 -12  1022.4  -0.3  715  302           
00 22.02.18 тихо ()   н/о  слаб. снег  10/0 средняя, верхняя 
[Ac As|Cs]
-13.9 -15.9 85 -14  1023  715  305  -14    56  равномерный
сухой снег
100% 
03 22.02.18 тихо ()   4000 м  слаб. снег  10/0 верхняя 
[Cs]
-10.1 -12.1 85 -10  1022.3  0.3  715  300           
06 22.02.18 360 (С) 4000 м  слаб. снег  10/3 600 м кучево-дожд., верхняя 
[Cb cap|Cs]
-9.9 -14.1 71 -12  1022.4  0.2  715  300           
09 22.02.18 тихо ()   4000 м  слаб. ливневой снег  10/4 600 м кучево-дожд., верхняя 
[Cb cap|Cs]
-10.1 -13.7 75 -10  1023.4  0.8  716  301           
12 22.02.18 тихо ()   н/о  {ливн. осадки}  6/3 600 м кучево-дожд., верхняя 
[Cb cap|Ci fib]
-17.8 -19.7 85 -18  1027.2  1.6  717  310    -8.8  0.4     
15 22.02.18 тихо ()   н/о    4/0 верхняя 
[Ci fib]
-24.7 -27.2 80 -25  1029.6  0.3  717  319           
18 22.02.18 тихо ()   н/о    ясно 
-29 -31.4 80 -29  1030.2  -0.7  716  325           
21 22.02.18 тихо ()   н/о    ясно 
-30.8 -33.2 79 -31  1029.9  -0.9  716  327           
00 23.02.18 тихо ()   н/о    8/0 средняя, верхняя 
[Ac As|Ci]
-28.1 -30.5 80 -28  1028.6  -0.3  716  323  -31.2      57  равномерный
сухой снег
100% 
03 23.02.18 тихо ()   20000 м    10/0 средняя, верхняя 
[Ac As|Ci fib]
-21 -24.3 75 -21  1027.5  0.9  716  314           
06 23.02.18 060 (СВ) 20000 м    8/0 верхняя 
[Ci fib]
-9.1 -15.9 58 -11  1023.7  -0.4  716  300           
09 23.02.18 360 (С) 20000 м    6/1 1000 м средняя, верхняя 
[Sc diur, vesp|Ac As|Ci fib]
-4 -12.3 52 -5  1022.4  0.1  716  294           
12 23.02.18 тихо ()   н/о    10/3 1000 м верхняя 
[Sc|Ci fib]
-12.5 -15.2 80 -13  1026.1  1.3  717  304    -2.8       
15 23.02.18 тихо ()   н/о    10/0 верхняя 
[Ci sp]
-17.6 -19.5 85 -18  1028.1  0.5  717  310           
18 23.02.18 тихо ()   н/о    10/0 средняя 
[Ac As]
-19.2 -21.8 80 -19  1027.8  -0.6  717  312           
21 23.02.18 тихо ()   н/о    10/0 верхняя 
[Ci fib]
-20.3 -22.9 80 -20  1027.6  -0.5  717  313           
00 24.02.18 тихо ()   н/о    3/0 верхняя 
[Ci sp]
-24.4 -27.6 75 -24  1028.9  717  319  -24.6      56  равномерный
сухой снег
100% 
03 24.02.18 тихо ()   20000 м    10/0 средняя, верхняя 
[Ac trans|Ci fib]
-14 -16.7 80 -14  1025.7  -0.1  716  306  -26         
06 24.02.18 тихо ()   20000 м    10/0 верхняя 
[Cs]
-7.3 -14.3 57 -7  1021.7  -2  715  297           
09 24.02.18 050 (СВ) 20000 м    10/1 1000 м средняя, верхняя 
[Cu hum|Ac trans|Cs]
-6.8 -13.5 59 -8  1020.3  -1.2  714  296           
12 24.02.18 тихо ()   н/о    10/0 верхняя 
[Cs]
-12.6 -15.3 80 -13  1022  0.1  714  303    -4.7       
15 24.02.18 тихо ()   н/о    8/0 средняя, верхняя 
[Ac cuf|Cs]
-16.6 -18.5 85 -17  1022.8  -0.3  714  308           
18 24.02.18 тихо ()   н/о    6/0 верхняя 
[Ci fib]
-18.2 -20.1 85 -18  1022.7  -0.5  714  310           
Время (UTC), дата Ветер
(°,м/с) 
Видим.   Явления Облачность Т
(°С)
Тd
(°С)
f(%) Тe
(°С)
Pmin
(гПа)
dP
(гПа)
Po
(мм)
O2
(г/м3)
Тmin Tmax R s Состояние
почвы

Для получения пояснительной информации подведите курсор к названию столбца.

ПОГОДА в Инге - архив

Всё, что Вы хотите узнать о погоде в Инге - удобно и подробно!

Выберите нужную дату (начиная с 1 января 2015* года) и нажмите кнопку "Найти".
Будут отображены архивные сводки погоды по пункту Инга, начиная с указанной даты.


Отображать данные в формате CSV (для использования в таблицах Excel)


Внимание! Наш архив погоды предназначен исключительно для личного некоммерческого использования в познавательных целях. Если Вам необходимы официальные справки о состоянии погоды (для производственных, юридических, коммерческих и т.п. целей), обращайтесь в органы Росгидромета.

*Примечание: данная дата относится к архиву по метеостанциям СССР (Россия, СНГ, Балтия).
Архив по метеостанциям Зарубежной Европы и Азии (кроме Китая) хранится 10 дней, по другим регионам земного шара (Китай, Африка, Америка, Австралия, Океания) - 1 день.

Инга - район местоположения метеостанции


Название, широта, долгота, высота метеостанции:
Инга 53°ш. 102°д. 543 м над ур. моря [Российская Федерация]

Дополнительная информация

В oтличие oт бoльшинства пoгoдных сайтoв мы публикуем пoдрoбную метеoинфoрмацию в детальнoм прoфессиoнальнoм фoрмате.

Характеристики температуры и влажнoсти вoздуха измеряются на высoте 2 м в тени вдали oт зданий и деревьев.
Скoрoсть ветра измеряется на высoте 10 м (на урoвне рoста челoвека скoрoсть ветра ниже в 1.5-2 раза). Если метеoстанция нахoдится в гoрoде или в лесу, тo скoрoсть ветра занижена на 2-4 м/с пo сравнению с oткрытым местoм. Скoрoсть ветра над акватoриями крупных рек и oзёр, а также на вершинах хoлмoв на 2-5 м/с выше, чем в oбычных услoвиях.
Атмoсфернoе давление в разных тoчках местнoсти мoжет значительнo oтличаться oт давления на метеoстанции, в зависимoсти oт услoвий рельефа (при пoдъёме на 10 м давление пoнижается примернo на 1 мм рт.ст.).